Weather reports worldwide

Advertisment
Pershore, United Kingdom (3529): temperature & dewpoint: 15.05.2019 16:00:00 - 21.05.2019 16:00:00 (BST)Pershore, United Kingdom (3529): temperature -20cm & temperature -100cm: 15.05.2019 16:00:00 - 21.05.2019 16:00:00 (BST)Pershore, United Kingdom (3529): wind speed: 15.05.2019 16:00:00 - 21.05.2019 16:00:00 (BST)Pershore, United Kingdom (3529): wind direction: 15.05.2019 16:00:00 - 21.05.2019 16:00:00 (BST)Pershore, United Kingdom (3529): reduced air pressure: 15.05.2019 16:00:00 - 21.05.2019 16:00:00 (BST)Pershore, United Kingdom (3529): visibility: 15.05.2019 16:00:00 - 21.05.2019 16:00:00 (BST)Pershore, United Kingdom (3529): precipitation: 15.05.2019 16:00:00 - 21.05.2019 16:00:00 (BST)
Date & Time tt [°C] td [°C] tt -20cm [°C] tt -100cm [°C] ff [km/h] ff [kn] dd ppp [hPa] vv [km] rr [mm]
21.05.2019 16:00:00 19,0 7,8 - - 9 5 N 1019,7 45 0,0
21.05.2019 15:00:00 18,0 8,4 - - 9 5 NW 1020,0 35 0,0
21.05.2019 14:00:00 17,5 8,3 - - 13 7 NNW 1020,0 23 0,0
21.05.2019 13:00:00 18,6 9,4 - - 11 6 NW 1019,9 26 0,0
21.05.2019 12:00:00 17,3 8,0 - - 15 8 NW 1020,1 21 0,0
21.05.2019 11:00:00 16,4 9,1 - - 11 6 NNW 1019,9 28 0,0
21.05.2019 10:00:00 15,5 8,8 14,2 12,0 13 7 NNW 1019,9 35 0,0
21.05.2019 09:00:00 13,6 8,7 - - 13 7 NNW 1019,8 30 0,0
21.05.2019 08:00:00 10,6 8,2 - - 5 3 WNW 1019,6 22 0,0
21.05.2019 07:00:00 7,5 6,8 - - 4 2 SW 1019,3 18 0,0
21.05.2019 06:00:00 5,7 5,4 - - 2 1 S 1018,9 14 0,0
21.05.2019 05:00:00 4,2 3,6 - - 4 2 SW 1018,9 16 0,0
21.05.2019 04:00:00 4,7 4,1 - - 2 1 W 1018,5 16 0,0
21.05.2019 03:00:00 5,2 4,3 - - 4 2 WNW 1018,2 22 0,0
21.05.2019 02:00:00 6,2 4,9 - - 5 3 NW 1017,9 30 0,0
21.05.2019 01:00:00 7,4 5,2 - - 4 2 NNW 1017,8 30 0,0
21.05.2019 00:00:00 9,1 6,1 - - 8 4 NNW 1017,6 24 0,0
20.05.2019 23:00:00 11,7 7,3 - - 8 4 NW 1017,2 50 0,0
20.05.2019 22:00:00 12,7 8,1 - - 9 5 WNW 1016,8 26 0,0
20.05.2019 21:00:00 13,6 9,2 - - 9 5 NW 1015,9 40 0,0
20.05.2019 20:00:00 14,4 8,7 - - 11 6 NNW 1015,2 35 0,0
20.05.2019 19:00:00 16,0 8,8 - - 16 9 NW 1014,7 40 0,0
20.05.2019 18:00:00 18,9 8,2 - - 8 4 NW 1014,1 30 0,0
20.05.2019 17:00:00 18,8 6,0 - - 8 4 NNW 1014,2 45 0,0
20.05.2019 16:00:00 18,5 8,5 - - 5 3 NNW 1014,2 26 0,0
20.05.2019 15:00:00 17,6 8,9 - - 5 3 WNW 1014,3 30 0,0
20.05.2019 14:00:00 17,6 8,9 - - 8 4 NW 1014,2 21 0,0
20.05.2019 13:00:00 18,3 10,3 - - 11 6 NW 1014,2 35 0,0
20.05.2019 12:00:00 17,5 9,7 - - 8 4 N 1014,1 35 0,0
20.05.2019 11:00:00 15,7 10,1 - - 11 6 N 1014,2 9 0,0
20.05.2019 10:00:00 13,6 9,9 13,9 11,9 11 6 NNW 1014,3 10 0,0
20.05.2019 09:00:00 11,4 9,2 - - 13 7 N 1014,4 7 0,0
20.05.2019 08:00:00 10,6 8,7 - - 11 6 N 1014,1 6 0,0
20.05.2019 07:00:00 10,1 8,9 - - 5 3 NNW 1013,5 12 0,0
20.05.2019 06:00:00 8,7 8,0 - - 4 2 NW 1013,1 10 0,0
20.05.2019 05:00:00 8,7 8,0 - - 2 1 NNW 1013,1 14 0,0
20.05.2019 04:00:00 8,4 7,8 - - 2 1 W 1012,9 11 0,0
20.05.2019 03:00:00 8,3 7,6 - - 4 2 NNW 1012,8 15 0,0
20.05.2019 02:00:00 7,7 6,0 - - 4 2 NNW 1012,9 23 0,0
20.05.2019 01:00:00 9,7 7,8 - - 4 2 NNW 1012,9 30 0,0
20.05.2019 00:00:00 9,8 7,9 - - 4 2 NNW 1012,8 28 0,0
19.05.2019 23:00:00 10,8 8,2 - - 9 5 N 1012,8 45 0,0
19.05.2019 22:00:00 12,3 8,6 - - 8 4 N 1012,6 45 0,0
19.05.2019 21:00:00 13,7 9,6 - - 9 5 N 1012,0 50 0,0
19.05.2019 20:00:00 14,0 11,3 - - 2 1 NNW 1011,7 14 0,0
19.05.2019 19:00:00 13,9 10,8 - - 5 3 NNE 1011,4 17 0,0
19.05.2019 18:00:00 14,9 10,4 - - 11 6 NNW 1011,1 30 0,0
19.05.2019 17:00:00 15,2 9,7 - - 13 7 SE 1011,1 45 0,0
19.05.2019 16:00:00 17,9 10,1 - - 8 4 WNW 1011,0 30 0,0
19.05.2019 15:00:00 17,1 10,7 - - 9 5 NNW 1010,8 16 0,0
19.05.2019 14:00:00 17,5 10,8 - - 9 5 NW 1010,8 30 0,0
19.05.2019 13:00:00 17,3 10,7 - - 9 5 N 1010,8 15 0,0
19.05.2019 12:00:00 16,7 10,1 - - 5 3 NW 1010,8 16 0,0
19.05.2019 11:00:00 16,6 10,5 - - 4 2 WNW 1010,9 14 0,0
19.05.2019 10:00:00 14,5 10,0 13,7 11,7 8 4 N 1010,8 12 0,0
19.05.2019 09:00:00 12,8 10,1 - - 5 3 N 1010,5 12 0,0
19.05.2019 08:00:00 10,9 10,4 - - 4 2 N 1010,4 9 0,0
19.05.2019 07:00:00 9,0 8,9 - - 2 1 WNW 1010,1 6 0,0
19.05.2019 06:00:00 7,0 6,6 - - 2 1 SW 1010,0 8 0,0
19.05.2019 05:00:00 7,0 6,2 - - 2 1 SW 1009,7 6 0,0
19.05.2019 04:00:00 8,4 7,6 - - 5 3 S 1009,5 10 0,0
19.05.2019 03:00:00 9,9 8,7 - - 4 2 ESE 1009,2 14 0,0
19.05.2019 02:00:00 11,1 9,5 - - 2 1 NW 1009,1 9 0,0
19.05.2019 01:00:00 11,8 9,9 - - 2 1 SE 1009,0 17 0,0
19.05.2019 00:00:00 12,1 9,9 - - 2 1 SSE 1009,0 21 0,0
18.05.2019 23:00:00 11,9 9,6 - - 4 2 ESE 1008,9 24 0,0
18.05.2019 22:00:00 12,1 9,6 - - 4 2 ESE 1008,8 30 0,0
18.05.2019 21:00:00 12,2 9,3 - - 2 1 ESE 1008,4 35 0,0
18.05.2019 20:00:00 13,7 8,7 - - 4 2 E 1008,0 35 0,0
18.05.2019 19:00:00 15,4 9,5 - - 5 3 ESE 1007,7 35 0,0
18.05.2019 18:00:00 15,5 9,1 - - 5 3 ESE 1007,4 40 0,0
18.05.2019 17:00:00 16,7 9,9 - - 4 2 N 1007,2 30 0,0
18.05.2019 16:00:00 15,7 10,0 - - 4 2 N 1007,2 22 0,0
18.05.2019 15:00:00 14,6 9,5 - - 5 3 N 1007,3 45 0,0
18.05.2019 14:00:00 13,6 9,7 - - 8 4 NNW 1007,4 28 0,0
18.05.2019 13:00:00 14,3 10,4 - - 5 3 NW 1007,2 19 0,0
18.05.2019 12:00:00 14,1 9,9 - - 5 3 N 1007,2 30 0,0
18.05.2019 11:00:00 13,0 10,1 - - 4 2 NW 1007,3 19 0,0
18.05.2019 10:00:00 11,4 9,9 13,4 11,7 5 3 NW 1007,4 10 0,0
18.05.2019 09:00:00 10,9 9,6 - - 5 3 NNW 1007,4 10 0,0
18.05.2019 08:00:00 10,6 9,7 - - 2 1 NNW 1007,1 8 0,0
18.05.2019 07:00:00 10,2 9,4 - - 2 1 NW 1007,0 6 0,0
18.05.2019 06:00:00 9,5 8,7 - - 2 1 NW 1006,9 5 0,0
18.05.2019 05:00:00 9,7 8,4 - - 4 2 N 1006,8 10 0,0
18.05.2019 04:00:00 10,1 8,6 - - 4 2 N 1007,3 9 0,0
18.05.2019 03:00:00 10,3 8,3 - - 2 1 ENE 1007,6 15 0,0
18.05.2019 02:00:00 10,4 8,7 - - 4 2 N 1007,9 20 0,0
18.05.2019 01:00:00 10,6 8,3 - - 4 2 NE 1008,2 10 0,2
18.05.2019 00:00:00 11,0 8,6 - - 2 1 NNW 1008,5 19 0,0
17.05.2019 23:00:00 11,5 7,6 - - 2 1 NNE 1008,5 35 0,0
17.05.2019 22:00:00 11,9 8,0 - - 8 4 ENE 1008,6 30 0,0
17.05.2019 21:00:00 13,2 6,7 - - 4 2 NE 1008,4 40 0,0
17.05.2019 20:00:00 14,0 6,7 - - 9 5 NE 1008,3 40 0,0
17.05.2019 19:00:00 14,5 7,0 - - 11 6 NE 1008,4 40 0,0
17.05.2019 18:00:00 15,2 6,5 - - 16 9 ENE 1008,5 40 0,0
17.05.2019 17:00:00 16,9 7,6 - - 15 8 NE 1008,5 30 0,0
17.05.2019 16:00:00 15,3 10,1 - - 9 5 NE 1009,2 30 0,0
17.05.2019 15:00:00 13,7 10,1 - - 9 5 N 1010,1 22 0,0
17.05.2019 14:00:00 12,7 9,6 - - 9 5 NNE 1010,5 20 0,0
17.05.2019 13:00:00 12,2 9,1 - - 9 5 NNE 1010,7 16 0,0
17.05.2019 12:00:00 11,5 8,5 - - 13 7 NNE 1011,0 20 0,0
17.05.2019 11:00:00 11,4 7,8 - - 11 6 NNE 1011,2 25 0,0
17.05.2019 10:00:00 11,1 7,0 13,7 11,7 11 6 NNE 1011,6 40 0,0
17.05.2019 09:00:00 10,8 7,0 - - 9 5 NNE 1011,9 40 0,0
17.05.2019 08:00:00 10,3 8,2 - - 9 5 N 1012,4 19 0,0
17.05.2019 07:00:00 9,5 8,3 - - 8 4 N 1012,8 14 0,0
17.05.2019 06:00:00 9,3 7,8 - - 5 3 N 1013,3 9 0,2
17.05.2019 05:00:00 9,4 6,8 - - 8 4 NNE 1013,4 18 0,0
17.05.2019 04:00:00 8,7 6,5 - - 8 4 NNE 1013,9 22 0,0
17.05.2019 03:00:00 7,1 4,9 - - 8 4 N 1014,4 25 0,0
17.05.2019 02:00:00 8,2 4,1 - - 8 4 NNE 1015,0 35 0,0
17.05.2019 01:00:00 10,1 3,7 - - 9 5 NE 1015,7 50 0,0
17.05.2019 00:00:00 11,3 3,3 - - 13 7 NE 1016,0 50 0,0
16.05.2019 23:00:00 11,9 3,4 - - 13 7 NE 1016,8 45 0,0
16.05.2019 22:00:00 12,6 4,8 - - 13 7 NE 1017,0 45 0,0
16.05.2019 21:00:00 13,4 4,2 - - 15 8 ENE 1016,9 40 0,0
16.05.2019 20:00:00 14,0 4,0 - - 15 8 ENE 1016,9 45 0,0
16.05.2019 19:00:00 15,9 3,2 - - 16 9 ENE 1016,7 50 0,0
16.05.2019 18:00:00 16,6 3,9 - - 13 7 ENE 1016,8 35 0,0
16.05.2019 17:00:00 16,9 5,2 - - 18 10 E 1017,3 35 0,0
16.05.2019 16:00:00 16,6 5,5 - - 13 7 E 1017,6 30 0,0
16.05.2019 15:00:00 17,8 4,6 - - 15 8 E 1018,3 24 0,0
16.05.2019 14:00:00 17,3 5,9 - - 15 8 E 1019,1 26 0,0
16.05.2019 13:00:00 16,9 5,9 - - 15 8 E 1019,8 35 0,0
16.05.2019 12:00:00 16,1 5,5 - - 15 8 E 1020,4 14 0,0
16.05.2019 11:00:00 14,6 6,4 - - 15 8 E 1020,8 30 0,0
16.05.2019 10:00:00 13,3 8,2 13,7 11,4 9 5 E 1021,5 20 0,0
16.05.2019 09:00:00 11,5 6,9 - - 9 5 ENE 1022,0 30 0,0
16.05.2019 08:00:00 10,0 6,1 - - 9 5 ENE 1022,3 19 0,0
16.05.2019 07:00:00 8,3 4,6 - - 9 5 ENE 1022,1 22 0,0
16.05.2019 06:00:00 5,6 4,0 - - 5 3 NE 1022,5 14 0,0
16.05.2019 05:00:00 6,7 3,5 - - 5 3 NE 1022,7 15 0,0
16.05.2019 04:00:00 8,0 3,5 - - 8 4 E 1022,8 18 0,0
16.05.2019 03:00:00 8,4 3,7 - - 9 5 E 1022,7 20 0,0
16.05.2019 02:00:00 9,5 5,3 - - 13 7 E 1022,9 20 0,0
16.05.2019 01:00:00 10,1 6,5 - - 11 6 E 1023,1 22 0,0
16.05.2019 00:00:00 10,9 6,8 - - 8 4 E 1023,7 30 0,0
15.05.2019 23:00:00 12,3 7,6 - - 9 5 E 1023,7 35 0,0
15.05.2019 22:00:00 12,6 6,9 - - 8 4 E 1023,9 40 0,0
15.05.2019 21:00:00 14,4 7,6 - - 5 3 E 1023,8 45 0,0
15.05.2019 20:00:00 16,5 8,0 - - 5 3 ENE 1023,8 35 0,0
15.05.2019 19:00:00 18,0 7,2 - - 8 4 E 1024,1 45 0,0
15.05.2019 18:00:00 18,7 7,2 - - 9 5 E 1024,3 40 0,0
15.05.2019 17:00:00 18,6 8,1 - - 9 5 E 1024,7 35 0,0
15.05.2019 16:00:00 18,8 6,8 - - 13 7 ESE 1025,1 45 0,0

tt = temperature
td = dewpoint
tt -20cm = temperature -20cm
tt -100cm = temperature -100cm
ff = wind speed
dd = wind direction
ppp = reduced air pressure
vv = visibility
rr = precipitation

Next stations